Regional Weather Roundup
Issued by NWS Charleston, SC

Current Version | Previous Version | Graphics & Text | Print | Product List | Glossary On
Versions: 1 2 3 4 5 6 7 8 9 10 11 12 13 14 15 16 17 18 19 20 21 22 23 24 25 26 27 28 29 30 31 32 33 34 35 36 37 38 39 40 41 42 43 44 45 46 47 48 49 50
000
ASUS42 KCHS 281312
RWRCHS

REGIONAL WEATHER ROUNDUP
NATIONAL WEATHER SERVICE CHARLESTON SC
900 AM EDT FRI AUG 28 2015

NOTE: "FAIR" INDICATES FEW OR NO CLOUDS BELOW 12,000 FEET WITH NO
SIGNIFICANT WEATHER AND/OR OBSTRUCTIONS TO VISIBILITY.

NOT ALL STATIONS ARE QUALITY CONTROLLED BY THE NATIONAL
WEATHER SERVICE. USE DATA WITH CAUTION...ESPECIALLY
DEWPOINT OBSERVATIONS.

SCZ027-030-031-034>040-042>050-281400-
...SOUTHEAST SOUTH CAROLINA...

CITY           SKY/WX    TMP DP  RH WIND       PRES   REMARKS
N CHARLESTON   MOSUNNY   76  70  82 N5        30.09S
WATERFRONT PRK   N/A     75  74  97 N7        30.06R
MOUNT PLEASANT FAIR      73  72  94 N5        30.09S
JOHNS ISLAND   CLOUDY    75  73  94 N5        30.09R FOG
PINOPOLIS        N/A     75  70  83 NE8       30.04R
MONCKS CORNER  FAIR      75  68  78 NE3       30.11R
SUMMERVILLE    FAIR      73  72  94 N7        30.11R
BEAUFORT MCAS  CLOUDY    75  72  90 NE8       30.10R
BEAUFORT ARPT  CLOUDY    73  73 100 NE9       30.09R FOG
HILTON HEAD IS PTSUNNY   77  75  94 N12       30.09S
WALTERBORO     CLOUDY    73  70  88 NE5       30.11R
ALLENDALE      CLOUDY    72  70  94 N6        30.11R FOG

...SOUTHERN MIDLANDS AND PEE DEE...

CITY           SKY/WX    TMP DP  RH WIND       PRES   REMARKS
GEORGETOWN     NOT AVBL
KINGSTREE      NOT AVBL
ORANGEBURG     PTSUNNY   72  64  76 NE7       30.13R
BARNWELL       CLOUDY    72  70  94 NE8       30.13R
AIKEN          FAIR      70  64  83 NE12      30.17R
MANNING        FAIR      70  64  83 N5        30.13R
COLUMBIA       PTSUNNY   75  62  64 E7        30.14R
SUMTER         PTSUNNY   72  64  76 NE7       30.12R
FLORENCE       MOSUNNY   72  65  78 NE9       30.13R
MYRTLE BEACH   NOT AVBL
N MYRTLE BEACH MOSUNNY   73  67  81 N10       30.10R

$$

GAZ063-065-086>088-099>101-113>116-118-119-134>141-150-281400-
...SOUTHEAST GEORGIA...

CITY           SKY/WX    TMP DP  RH WIND       PRES   REMARKS
SAVANNAH ARPT  CLOUDY    73  72  94 N10       30.09R FOG
HUNTER AAF     CLOUDY    75  75 100 VRB5      30.06R
FORT STEWART   CLOUDY    74  73  95 NE3       30.06R FOG
STATESBORO     CLOUDY    73  73 100 NE5       30.10R
SYLVANIA       CLOUDY    74  74  99 E6        30.11S FOG
CLAXTON        NOT AVBL

...CSRA...CENTRAL AND FAR SOUTHEAST GEORGIA...

CITY           SKY/WX    TMP DP  RH WIND       PRES   REMARKS
THOMSON        CLOUDY    73  71  92 E7        30.18R
AUGUSTA-BUSH   PTSUNNY   72  68  87 NE5       30.12R
AUGUSTA-DANIEL PTSUNNY   72  66  81 E7        30.14R
SWAINSBORO     FAIR     N/A N/A N/A E6        30.10S
VIDALIA        CLOUDY    73  72  94 NE6       30.09R
EASTMAN        CLOUDY    75  75 100 E6        30.11R
HAZLEHURST     CLOUDY    75  75 100 NE7       30.07R
ALMA           CLOUDY    76  73  91 VRB3      30.06R
WAYCROSS       MOSUNNY   80  78  93 NE3       30.05R
JESUP          CLOUDY    79  77  94 NE6       30.06R
BAXLEY         CLOUDY    77  73  88 E7        30.07R
BRUNSWICK      SUNNY     81  77  89 E5        30.05S
SAINT SIMONS   MOSUNNY   83  73  72 SE7       30.04R

$$

SCZ027-028-034-036>038-045-046-048>050-GAZ119-141-281400-
...LAKE AND SUPPLEMENTAL COASTAL OBSERVATIONS...

STATION/POSITION TIME  TEMP    WIND        PRES    WAVE   SWELL
                       AIR SEA DIR/SP/G            HT/PER HT/PER/DIR
                 (UTC) (F)     (DEG/KT/KT) (MB)    (FT/S) (FT/S/D)
UPR LAKE MARION  NOT AVBL
WINYAH BAY       1145   70     360/  6     1018.0
LAKE MURRAY      1200   70      20/  3/  6 1019.6R
ACE BASIN NERRS  NOT AVBL
FORT PULASKI     1200   77 85   10/ 10/ 12 1018.4R
SAPELO ISLAND    1200   77      60/  2     1017.0R

$$

ANZ835-935-AMZ111-154-330-350-352-354-370-450-454-472-281400-
...C-MAN AND BUOY OBSERVATIONS...

STATION/POSITION TIME  TEMP    WIND        PRES    WAVE   SWELL
                       AIR SEA DIR/SP/G            HT/PER HT/PER/DIR
                 (UTC) (F)     (DEG/KT/KT) (MB)    (FT/S) (FT/S/D)
BUOY 41004       1250   81 84   10/  8/ 10 1017.6R   3/ 5   2/ 5
BUOY 41008       1250   83 85   90/  8/ 10 1017.5R   2/ 9   2/110/ 9
FOLLY BEACH CMAN 1200   73      10/  9/ 12 1018.7R
CAPERS NEARSHORE NOT AVBL
FRIPP NEARSHORE  NOT AVBL


STATION/POSITION TIME  TEMP    WIND        PRES    WAVE   SWELL
                       AIR SEA DIR/SP/G            HT/PER HT/PER/DIR
                 (UTC) (F)     (DEG/KT/KT) (MB)    (FT/S) (FT/S/D)
5E ST. MARYS GA  1221      86                N/A     2/11   2/110/11
FRYING PAN BUOY  1250   81 81   50/ 14/ 16 1018.7R   4/ 9   2/120/ 9
BUOY 41025       1250   79 82   40/ 19/ 23 1018.8R   6/ 6   2/100/ 9
CAPE LOOKOUT NC  1200   78      40/ 17/ 20 1018.7R
BUOY 41002       1250   81 84  160/  4/  8 1017.7R   3/ 8   3/140/ 8
BUOY 41010       1220   83 85  190/  2/  4 1017.0R
ST AUGUSTINE FL  1300   81 85  170/  2/  2 1017.7R


$$



USA.gov is the U.S. government's official web portal to all federal, state and local government web resources and services.